Regional Weather Roundup
Issued by NWS Newport/Morehead, NC

Home | Current Version | Previous Version | Text Only | Print | Product List | Glossary On
Versions: 1 2 3 4 5 6 7 8 9 10 11 12 13 14 15 16 17 18 19 20 21 22 23 24 25 26 27 28 29 30 31 32 33 34 35 36 37 38 39 40 41 42 43 44 45 46 47 48 49 50
000
ASUS42 KMHX 292213
RWRMHX
WEATHER ROUNDUP FOR EASTERN NORTH CAROLINA
NATIONAL WEATHER SERVICE NEWPORT/MOREHEAD CITY NC
600 PM EDT FRI JUL 29 2016

NOTE: "FAIR" INDICATES FEW OR NO CLOUDS BELOW 12,000 FEET
WITH NO SIGNIFICANT WEATHER AND/OR OBSTRUCTIONS TO VISIBILITY

NCZ015>017-031-032-045>047-102-103-292300-
NORTH COAST

CITY           SKY/WX    TMP DP  RH WIND       PRES   REMARKS
EDENTON        MOSUNNY   90  71  53 NW6       29.89R
ELIZABETH CITY PTSUNNY   89  72  56 W8        29.88R
KITTY HAWK       N/A    N/A N/A N/A MISG        N/A
MANTEO           N/A     84  78  84 NE7       29.88R

$$

NCZ045>047-081-094-103-104-292300-
CENTRAL COAST

CITY           SKY/WX    TMP DP  RH WIND       PRES   REMARKS
FRISCO         MOSUNNY   84  79  85 SW12      29.88S

$$

NCZ095-097-098-100-101-292300-
SOUTHERN COAST

CITY           SKY/WX    TMP DP  RH WIND       PRES   REMARKS
BEAUFORT       CLOUDY    87  79  76 SW16      29.89R HX 101
CEDAR ISLAND   NOT AVBL
JACKSONVILLE   MOSUNNY   93  70  46 W9        29.88R
PINEY ISLAND   NOT AVBL
WILMINGTON     SUNNY     94  71  47 W14       29.90R HX 101


$$

NCZ011>013-027>030-043-044-078>080-089-090>093-098-292300-
COASTAL PLAIN

CITY           SKY/WX    TMP DP  RH WIND       PRES   REMARKS
AHOSKIE        SUNNY     85  74  68 CALM      29.90R
CLINTON        SUNNY     94  71  47 N6        29.90S HX 101
ELIZABETHTOWN  MOSUNNY   94  72  48 W7        29.90S HX 101
GOLDSBORO      SUNNY     94  68  42 NW8       29.88S
GREENVILLE     SUNNY     90  73  58 N6        29.91R
HAVELOCK       PTSUNNY   90  77  65 S7        29.89R HX 103
KENANSVILLE    NOT AVBL
KINSTON        MOSUNNY   91  70  49 NW7       29.90R
NEW BERN       PTSUNNY   92  73  53 NW9       29.89R HX 100
RICHLANDS      SUNNY     94  71  47 W7        29.90R HX 101
ROCKY MOUNT    MOSUNNY   91  72  53 W8        29.90R
WASHINGTON     SUNNY     89  73  58 NW5       29.88S
WHITEVILLE     MOSUNNY   92  73  54 CALM      29.90S HX 101

$$

AMZ130-135-150-152-154-156-158-170-250-252-270-ANZ085-086-088-633-658-670-292300-
MARINE OBSERVATIONS

STATION/POSITION TIME  TEMP    WIND        PRES    WAVE   SWELL
                       AIR SEA DIR/SP/G            HT/PER HT/PER
                 (UTC) (F)     (DEG/KT/KT) (MB)    (FT/S) (FT/S)
CHESAPEAKE LIGHT NOT AVBL
64 E VA BEACH    2150   83 84  280/  6/  6 1011.5    3/ 6   3/ 6
DUCK             2100   83 68  100/  5/  5 1010.9
2 E DUCK         2111      79                N/A     1/14
OREGON INLET     2100   86 84   30/  4/  5 1011.4
13E OREGON INLT  2200      80                N/A     3/ 5   2/ 5
HATTERAS CG      2100   85 84  210/ 12/ 15 1011.6
DIAMOND BUOY     2150   86 86  230/ 19/ 23 1011.8    3/ 4   2/ 8
CAPE LOOKOUT     2200   86     220/  9/ 11 1012.0
BEAUFORT LAB     2100   87 83  220/  8/ 12 1011.4
30 SE NEW RVR IN 2108   86 85  220/ 17/ 21 1012.2
30 SE NEW RVR IN 2125      85                N/A     5/ 6
27 SE WRIGHTSVLE 2108   86 84  220/ 17/ 21 1012.6
5 SE WRIGHTSVLE  NOT AVBL
225 S CAPE HAT   2150   85 85  230/ 10/ 10 1015.3    4/ 6   3/ 6
41 SE CHARLESTON 2150   86 86  210/ 17/ 21 1013.1    3/ 4   2/ 8

$$



USA.gov is the U.S. government's official web portal to all federal, state and local government web resources and services.